Year,Month,Day,Hour,Minute,Value (Times are PST for windgust in km/hr)
2015,08,26,00,09,1.60
2015,08,26,00,10,3.20
2015,08,26,00,11,3.20
2015,08,26,00,12,1.60
2015,08,26,00,13,1.60
2015,08,26,00,14,1.60
2015,08,26,00,15,1.60
2015,08,26,00,16,1.60
2015,08,26,00,17,1.60
2015,08,26,00,18,1.60
2015,08,26,04,39,3.20
2015,08,26,04,40,3.20
2015,08,26,04,42,1.60
2015,08,26,04,49,1.60
2015,08,26,04,50,1.60
2015,08,26,07,45,1.60
2015,08,26,07,46,1.60
2015,08,26,07,47,1.60
2015,08,26,07,50,1.60
2015,08,26,07,51,1.60
2015,08,26,07,52,1.60
2015,08,26,08,00,1.60
2015,08,26,08,07,1.60
2015,08,26,08,14,3.20
2015,08,26,08,15,3.20
2015,08,26,08,16,4.80
2015,08,26,08,17,4.80
2015,08,26,08,18,4.80
2015,08,26,08,19,4.80
2015,08,26,08,20,4.80
2015,08,26,08,21,6.40
2015,08,26,08,22,6.40
2015,08,26,08,23,6.40
2015,08,26,08,24,6.40
2015,08,26,08,25,6.40
2015,08,26,08,26,4.80
2015,08,26,08,27,6.40
2015,08,26,08,28,6.40
2015,08,26,08,29,4.80
2015,08,26,08,30,4.80
2015,08,26,08,31,3.20
2015,08,26,08,32,3.20
2015,08,26,08,33,6.40
2015,08,26,08,34,6.40
2015,08,26,08,35,4.80
2015,08,26,08,36,4.80
2015,08,26,08,37,6.40
2015,08,26,08,38,6.40
2015,08,26,08,39,6.40
2015,08,26,08,40,6.40
2015,08,26,08,41,6.40
2015,08,26,08,42,6.40
2015,08,26,08,43,4.80
2015,08,26,08,44,4.80
2015,08,26,08,45,4.80
2015,08,26,08,46,3.20
2015,08,26,08,47,4.80
2015,08,26,08,48,4.80
2015,08,26,08,49,3.20
2015,08,26,08,50,3.20
2015,08,26,08,51,3.20
2015,08,26,08,52,3.20
2015,08,26,08,53,3.20
2015,08,26,08,54,3.20
2015,08,26,08,55,3.20
2015,08,26,08,56,3.20
2015,08,26,08,57,3.20
2015,08,26,08,58,3.20
2015,08,26,08,59,1.60
2015,08,26,09,00,1.60
2015,08,26,09,01,1.60
2015,08,26,09,02,1.60
2015,08,26,09,03,4.80
2015,08,26,09,04,4.80
2015,08,26,09,05,4.80
2015,08,26,09,06,3.20
2015,08,26,09,07,3.20
2015,08,26,09,08,3.20
2015,08,26,09,09,3.20
2015,08,26,09,10,4.80
2015,08,26,09,11,3.20
2015,08,26,09,12,3.20
2015,08,26,09,13,4.80
2015,08,26,09,14,4.80
2015,08,26,09,15,4.80
2015,08,26,09,16,3.20
2015,08,26,09,17,4.80
2015,08,26,09,18,3.20
2015,08,26,09,19,4.80
2015,08,26,09,20,4.80
2015,08,26,09,21,3.20
2015,08,26,09,22,1.60
2015,08,26,09,24,4.80
2015,08,26,09,25,3.20
2015,08,26,09,26,6.40
2015,08,26,09,27,6.40
2015,08,26,09,28,6.40
2015,08,26,09,29,6.40
2015,08,26,09,30,6.40
2015,08,26,09,31,6.40
2015,08,26,09,32,6.40
2015,08,26,09,33,6.40
2015,08,26,09,34,4.80
2015,08,26,09,35,4.80
2015,08,26,09,36,3.20
2015,08,26,09,37,3.20
2015,08,26,09,38,4.80
2015,08,26,09,39,4.80
2015,08,26,09,40,6.40
2015,08,26,09,41,4.80
2015,08,26,09,42,3.20
2015,08,26,09,43,3.20
2015,08,26,09,44,1.60
2015,08,26,09,45,1.60
2015,08,26,09,47,4.80
2015,08,26,09,48,6.40
2015,08,26,09,49,6.40
2015,08,26,09,50,6.40
2015,08,26,09,51,4.80
2015,08,26,09,52,4.80
2015,08,26,09,53,6.40
2015,08,26,09,54,6.40
2015,08,26,09,55,4.80
2015,08,26,09,56,4.80
2015,08,26,09,57,3.20
2015,08,26,09,58,3.20
2015,08,26,09,59,3.20
2015,08,26,10,00,4.80
2015,08,26,10,01,6.40
2015,08,26,10,02,3.20
2015,08,26,10,03,4.80
2015,08,26,10,04,4.80
2015,08,26,10,05,4.80
2015,08,26,10,06,4.80
2015,08,26,10,07,4.80
2015,08,26,10,08,3.20
2015,08,26,10,09,3.20
2015,08,26,10,10,4.80
2015,08,26,10,11,4.80
2015,08,26,10,12,3.20
2015,08,26,10,13,3.20
2015,08,26,10,14,3.20
2015,08,26,10,15,4.80
2015,08,26,10,16,4.80
2015,08,26,10,17,3.20
2015,08,26,10,18,4.80
2015,08,26,10,19,6.40
2015,08,26,10,20,4.80
2015,08,26,10,21,4.80
2015,08,26,10,22,6.40
2015,08,26,10,23,6.40
2015,08,26,10,24,4.80
2015,08,26,10,25,4.80
2015,08,26,10,26,6.40
2015,08,26,10,27,6.40
2015,08,26,10,28,6.40
2015,08,26,10,29,6.40
2015,08,26,10,30,8.10
2015,08,26,10,31,8.10
2015,08,26,10,32,8.10
2015,08,26,10,33,6.40
2015,08,26,10,34,6.40
2015,08,26,10,35,8.10
2015,08,26,10,36,6.40
2015,08,26,10,37,8.10
2015,08,26,10,38,8.10
2015,08,26,10,39,6.40
2015,08,26,10,40,9.60
2015,08,26,10,41,8.10
2015,08,26,10,42,6.40
2015,08,26,10,43,6.40
2015,08,26,10,44,11.30
2015,08,26,10,45,11.30
2015,08,26,10,46,11.30
2015,08,26,10,47,9.60
2015,08,26,10,48,9.60
2015,08,26,10,49,9.60
2015,08,26,10,50,11.30
2015,08,26,10,51,11.30
2015,08,26,10,52,9.60
2015,08,26,10,53,8.10
2015,08,26,10,54,8.10
2015,08,26,10,55,8.10
2015,08,26,10,56,8.10
2015,08,26,10,57,9.60
2015,08,26,10,58,8.10
2015,08,26,10,59,8.10
2015,08,26,11,00,8.10
2015,08,26,11,01,6.40
2015,08,26,11,02,6.40
2015,08,26,11,03,4.80
2015,08,26,11,04,4.80
2015,08,26,11,05,4.80
2015,08,26,11,06,3.20
2015,08,26,11,07,4.80
2015,08,26,11,08,4.80
2015,08,26,11,09,8.10
2015,08,26,11,10,8.10
2015,08,26,11,11,6.40
2015,08,26,11,12,3.20
2015,08,26,11,13,6.40
2015,08,26,11,14,6.40
2015,08,26,11,15,6.40
2015,08,26,11,16,9.60
2015,08,26,11,17,6.40
2015,08,26,11,18,8.10
2015,08,26,11,19,8.10
2015,08,26,11,20,6.40
2015,08,26,11,21,8.10
2015,08,26,11,22,6.40
2015,08,26,11,23,6.40
2015,08,26,11,24,6.40
2015,08,26,11,25,9.60
2015,08,26,11,26,8.10
2015,08,26,11,27,6.40
2015,08,26,11,28,9.60
2015,08,26,11,29,8.10
2015,08,26,11,30,8.10
2015,08,26,11,31,8.10
2015,08,26,11,32,9.60
2015,08,26,11,33,8.10
2015,08,26,11,34,9.60
2015,08,26,11,35,8.10
2015,08,26,11,36,8.10
2015,08,26,11,37,9.60
2015,08,26,11,38,8.10
2015,08,26,11,39,6.40
2015,08,26,11,40,4.80
2015,08,26,11,41,4.80
2015,08,26,11,42,4.80
2015,08,26,11,43,6.40
2015,08,26,11,44,6.40
2015,08,26,11,45,6.40
2015,08,26,11,46,6.40
2015,08,26,11,47,8.10
2015,08,26,11,48,9.60
2015,08,26,11,49,9.60
2015,08,26,11,50,8.10
2015,08,26,11,51,11.30
2015,08,26,11,52,9.60
2015,08,26,11,53,9.60
2015,08,26,11,54,8.10
2015,08,26,11,55,6.40
2015,08,26,11,56,6.40
2015,08,26,11,57,6.40
2015,08,26,11,58,6.40
2015,08,26,11,59,8.10
2015,08,26,12,00,8.10
2015,08,26,12,01,9.60
2015,08,26,12,02,9.60
2015,08,26,12,03,9.60
2015,08,26,12,04,11.30
2015,08,26,12,05,9.60
2015,08,26,12,06,11.30
2015,08,26,12,07,11.30
2015,08,26,12,08,11.30
2015,08,26,12,09,11.30
2015,08,26,12,10,9.60
2015,08,26,12,11,11.30
2015,08,26,12,12,11.30
2015,08,26,12,13,11.30
2015,08,26,12,14,14.50
2015,08,26,12,15,11.30
2015,08,26,12,16,9.60
2015,08,26,12,17,11.30
2015,08,26,12,18,8.10
2015,08,26,12,19,8.10
2015,08,26,12,20,8.10
2015,08,26,12,21,9.60
2015,08,26,12,22,8.10
2015,08,26,12,23,6.40
2015,08,26,12,24,8.10
2015,08,26,12,25,4.80
2015,08,26,12,26,8.10
2015,08,26,12,27,6.40
2015,08,26,12,28,8.10
2015,08,26,12,29,8.10
2015,08,26,12,30,9.60
2015,08,26,12,31,8.10
2015,08,26,12,32,8.10
2015,08,26,12,33,11.30
2015,08,26,12,34,12.90
2015,08,26,12,35,11.30
2015,08,26,12,36,14.50
2015,08,26,12,37,9.60
2015,08,26,12,38,17.70
2015,08,26,12,39,12.90
2015,08,26,12,40,11.30
2015,08,26,12,41,11.30
2015,08,26,12,42,9.60
2015,08,26,12,43,4.80
2015,08,26,12,44,8.10
2015,08,26,12,45,8.10
2015,08,26,12,46,4.80
2015,08,26,12,47,6.40
2015,08,26,12,48,6.40
2015,08,26,12,49,6.40
2015,08,26,12,50,6.40
2015,08,26,12,51,8.10
2015,08,26,12,52,8.10
2015,08,26,12,53,8.10
2015,08,26,12,54,8.10
2015,08,26,12,55,6.40
2015,08,26,12,56,6.40
2015,08,26,12,57,4.80
2015,08,26,12,58,4.80
2015,08,26,12,59,4.80
2015,08,26,13,00,4.80
2015,08,26,13,01,4.80
2015,08,26,13,02,6.40
2015,08,26,13,03,4.80
2015,08,26,13,04,3.20
2015,08,26,13,05,6.40
2015,08,26,13,06,8.10
2015,08,26,13,07,6.40
2015,08,26,13,08,4.80
2015,08,26,13,09,6.40
2015,08,26,13,10,9.60
2015,08,26,13,11,9.60
2015,08,26,13,12,8.10
2015,08,26,13,13,9.60
2015,08,26,13,14,9.60
2015,08,26,13,15,9.60
2015,08,26,13,16,8.10
2015,08,26,13,17,9.60
2015,08,26,13,18,9.60
2015,08,26,13,19,9.60
2015,08,26,13,20,9.60
2015,08,26,13,21,8.10
2015,08,26,13,22,9.60
2015,08,26,13,23,8.10
2015,08,26,13,24,9.60
2015,08,26,13,25,9.60
2015,08,26,13,26,9.60
2015,08,26,13,27,9.60
2015,08,26,13,28,9.60
2015,08,26,13,29,9.60
2015,08,26,13,30,9.60
2015,08,26,13,31,9.60
2015,08,26,13,32,9.60
2015,08,26,13,33,11.30
2015,08,26,13,34,9.60
2015,08,26,13,35,9.60
2015,08,26,13,36,14.50
2015,08,26,13,37,14.50
2015,08,26,13,38,14.50
2015,08,26,13,39,11.30
2015,08,26,13,40,9.60
2015,08,26,13,41,8.10
2015,08,26,13,42,6.40
2015,08,26,13,43,8.10
2015,08,26,13,44,6.40
2015,08,26,13,45,6.40
2015,08,26,13,46,9.60
2015,08,26,13,47,9.60
2015,08,26,13,48,9.60
2015,08,26,13,49,6.40
2015,08,26,13,50,9.60
2015,08,26,13,51,9.60
2015,08,26,13,52,9.60
2015,08,26,13,53,11.30
2015,08,26,13,54,9.60
2015,08,26,13,55,9.60
2015,08,26,13,56,9.60
2015,08,26,13,57,8.10
2015,08,26,13,58,9.60
2015,08,26,13,59,8.10
2015,08,26,14,00,9.60
2015,08,26,14,01,11.30
2015,08,26,14,02,9.60
2015,08,26,14,03,8.10
2015,08,26,14,04,8.10
2015,08,26,14,05,8.10
2015,08,26,14,06,9.60
2015,08,26,14,07,8.10
2015,08,26,14,08,8.10
2015,08,26,14,09,6.40
2015,08,26,14,10,8.10
2015,08,26,14,11,8.10
2015,08,26,14,12,8.10
2015,08,26,14,13,9.60
2015,08,26,14,14,8.10
2015,08,26,14,15,8.10
2015,08,26,14,16,8.10
2015,08,26,14,17,8.10
2015,08,26,14,18,9.60
2015,08,26,14,19,9.60
2015,08,26,14,20,8.10
2015,08,26,14,21,8.10
2015,08,26,14,22,9.60
2015,08,26,14,23,11.30
2015,08,26,14,24,11.30
2015,08,26,14,25,12.90
2015,08,26,14,26,9.60
2015,08,26,14,27,4.80
2015,08,26,14,28,8.10
2015,08,26,14,29,11.30
2015,08,26,14,30,14.50
2015,08,26,14,31,11.30
2015,08,26,14,32,11.30
2015,08,26,14,33,11.30
2015,08,26,14,34,9.60
2015,08,26,14,35,9.60
2015,08,26,14,36,8.10
2015,08,26,14,37,8.10
2015,08,26,14,38,9.60
2015,08,26,14,39,9.60
2015,08,26,14,40,9.60
2015,08,26,14,41,9.60
2015,08,26,14,42,9.60
2015,08,26,14,43,8.10
2015,08,26,14,44,8.10
2015,08,26,14,45,8.10
2015,08,26,14,46,4.80
2015,08,26,14,47,9.60
2015,08,26,14,48,11.30
2015,08,26,14,49,11.30
2015,08,26,14,50,9.60
2015,08,26,14,51,11.30
2015,08,26,14,52,8.10
2015,08,26,14,53,9.60
2015,08,26,14,54,9.60
2015,08,26,14,55,9.60
2015,08,26,14,56,9.60
2015,08,26,14,57,9.60
2015,08,26,14,58,9.60
2015,08,26,14,59,9.60
2015,08,26,15,00,11.30
2015,08,26,15,01,11.30
2015,08,26,15,02,12.90
2015,08,26,15,03,12.90
2015,08,26,15,04,8.10
2015,08,26,15,05,11.30
2015,08,26,15,06,11.30
2015,08,26,15,07,11.30
2015,08,26,15,08,12.90
2015,08,26,15,09,11.30
2015,08,26,15,10,8.10
2015,08,26,15,11,8.10
2015,08,26,15,12,9.60
2015,08,26,15,13,8.10
2015,08,26,15,14,9.60
2015,08,26,15,15,9.60
2015,08,26,15,16,11.30
2015,08,26,15,17,11.30
2015,08,26,15,18,4.80
2015,08,26,15,19,6.40
2015,08,26,15,20,8.10
2015,08,26,15,21,8.10
2015,08,26,15,22,9.60
2015,08,26,15,23,9.60
2015,08,26,15,24,6.40
2015,08,26,15,25,4.80
2015,08,26,15,26,9.60
2015,08,26,15,27,9.60
2015,08,26,15,28,11.30
2015,08,26,15,29,11.30
2015,08,26,15,30,12.90
2015,08,26,15,31,14.50
2015,08,26,15,32,9.60
2015,08,26,15,33,8.10
2015,08,26,15,34,9.60
2015,08,26,15,35,11.30
2015,08,26,15,36,11.30
2015,08,26,15,37,11.30
2015,08,26,15,38,14.50
2015,08,26,15,39,12.90
2015,08,26,15,40,11.30
2015,08,26,15,41,14.50
2015,08,26,15,42,12.90
2015,08,26,15,43,12.90
2015,08,26,15,44,12.90
2015,08,26,15,45,9.60
2015,08,26,15,46,11.30
2015,08,26,15,47,11.30
2015,08,26,15,48,9.60
2015,08,26,15,49,11.30
2015,08,26,15,50,11.30
2015,08,26,15,51,6.40
2015,08,26,15,52,6.40
2015,08,26,15,53,11.30
2015,08,26,15,54,8.10
2015,08,26,15,55,8.10
2015,08,26,15,56,8.10
2015,08,26,15,57,9.60
2015,08,26,15,58,11.30
2015,08,26,15,59,8.10
2015,08,26,16,00,6.40
2015,08,26,16,01,9.60
2015,08,26,16,02,11.30
2015,08,26,16,03,11.30
2015,08,26,16,04,9.60
2015,08,26,16,05,9.60
2015,08,26,16,06,11.30
2015,08,26,16,07,11.30
2015,08,26,16,08,11.30
2015,08,26,16,09,8.10
2015,08,26,16,10,9.60
2015,08,26,16,11,9.60
2015,08,26,16,12,11.30
2015,08,26,16,13,11.30
2015,08,26,16,14,11.30
2015,08,26,16,15,11.30
2015,08,26,16,16,9.60
2015,08,26,16,17,11.30
2015,08,26,16,18,11.30
2015,08,26,16,19,11.30
2015,08,26,16,20,9.60
2015,08,26,16,21,11.30
2015,08,26,16,22,11.30
2015,08,26,16,23,9.60
2015,08,26,16,24,9.60
2015,08,26,16,25,9.60
2015,08,26,16,26,8.10
2015,08,26,16,27,11.30
2015,08,26,16,28,14.50
2015,08,26,16,29,11.30
2015,08,26,16,30,9.60
2015,08,26,16,31,11.30
2015,08,26,16,32,8.10
2015,08,26,16,33,8.10
2015,08,26,16,34,8.10
2015,08,26,16,35,8.10
2015,08,26,16,36,6.40
2015,08,26,16,37,9.60
2015,08,26,16,38,8.10
2015,08,26,16,39,8.10
2015,08,26,16,40,11.30
2015,08,26,16,41,9.60
2015,08,26,16,42,8.10
2015,08,26,16,43,8.10
2015,08,26,16,44,4.80
2015,08,26,16,45,8.10
2015,08,26,16,46,9.60
2015,08,26,16,47,12.90
2015,08,26,16,48,12.90
2015,08,26,16,49,9.60
2015,08,26,16,50,9.60
2015,08,26,16,51,11.30
2015,08,26,16,52,8.10
2015,08,26,16,53,6.40
2015,08,26,16,54,6.40
2015,08,26,16,55,6.40
2015,08,26,16,56,6.40
2015,08,26,16,57,4.80
2015,08,26,16,58,4.80
2015,08,26,16,59,8.10
2015,08,26,17,00,4.80
2015,08,26,17,01,6.40
2015,08,26,17,02,6.40
2015,08,26,17,03,6.40
2015,08,26,17,04,8.10
2015,08,26,17,05,8.10
2015,08,26,17,06,8.10
2015,08,26,17,07,8.10
2015,08,26,17,08,4.80
2015,08,26,17,09,8.10
2015,08,26,17,10,8.10
2015,08,26,17,11,6.40
2015,08,26,17,12,6.40
2015,08,26,17,13,6.40
2015,08,26,17,14,4.80
2015,08,26,17,15,4.80
2015,08,26,17,16,6.40
2015,08,26,17,17,4.80
2015,08,26,17,18,4.80
2015,08,26,17,19,3.20
2015,08,26,17,20,4.80
2015,08,26,17,21,4.80
2015,08,26,17,22,9.60
2015,08,26,17,23,4.80
2015,08,26,17,24,8.10
2015,08,26,17,25,9.60
2015,08,26,17,26,9.60
2015,08,26,17,27,9.60
2015,08,26,17,28,6.40
2015,08,26,17,29,8.10
2015,08,26,17,30,8.10
2015,08,26,17,31,8.10
2015,08,26,17,32,9.60
2015,08,26,17,33,8.10
2015,08,26,17,34,8.10
2015,08,26,17,35,8.10
2015,08,26,17,36,8.10
2015,08,26,17,37,8.10
2015,08,26,17,38,4.80
2015,08,26,17,39,6.40
2015,08,26,17,40,6.40
2015,08,26,17,41,9.60
2015,08,26,17,42,8.10
2015,08,26,17,43,8.10
2015,08,26,17,44,6.40
2015,08,26,17,45,8.10
2015,08,26,17,46,6.40
2015,08,26,17,47,6.40
2015,08,26,17,48,6.40
2015,08,26,17,49,6.40
2015,08,26,17,50,4.80
2015,08,26,17,51,6.40
2015,08,26,17,52,6.40
2015,08,26,17,53,4.80
2015,08,26,17,54,3.20
2015,08,26,17,55,6.40
2015,08,26,17,56,4.80
2015,08,26,17,57,6.40
2015,08,26,17,58,6.40
2015,08,26,17,59,4.80
2015,08,26,18,00,4.80
2015,08,26,18,01,6.40
2015,08,26,18,02,8.10
2015,08,26,18,03,6.40
2015,08,26,18,04,4.80
2015,08,26,18,05,6.40
2015,08,26,18,06,6.40
2015,08,26,18,07,9.60
2015,08,26,18,08,9.60
2015,08,26,18,09,8.10
2015,08,26,18,10,8.10
2015,08,26,18,11,8.10
2015,08,26,18,12,8.10
2015,08,26,18,13,8.10
2015,08,26,18,14,4.80
2015,08,26,18,15,6.40
2015,08,26,18,16,8.10
2015,08,26,18,17,8.10
2015,08,26,18,18,8.10
2015,08,26,18,19,6.40
2015,08,26,18,20,6.40
2015,08,26,18,21,4.80
2015,08,26,18,22,4.80
2015,08,26,18,23,4.80
2015,08,26,18,24,4.80
2015,08,26,18,25,4.80
2015,08,26,18,26,4.80
2015,08,26,18,27,6.40
2015,08,26,18,28,3.20
2015,08,26,18,29,4.80
2015,08,26,18,30,6.40
2015,08,26,18,31,6.40
2015,08,26,18,32,6.40
2015,08,26,18,33,8.10
2015,08,26,18,34,6.40
2015,08,26,18,35,4.80
2015,08,26,18,36,6.40
2015,08,26,18,37,8.10
2015,08,26,18,38,6.40
2015,08,26,18,39,8.10
2015,08,26,18,40,8.10
2015,08,26,18,41,8.10
2015,08,26,18,42,6.40
2015,08,26,18,43,8.10
2015,08,26,18,44,6.40
2015,08,26,18,45,8.10
2015,08,26,18,46,6.40
2015,08,26,18,47,4.80
2015,08,26,18,48,6.40
2015,08,26,18,49,6.40
2015,08,26,18,50,4.80
2015,08,26,18,51,6.40
2015,08,26,18,52,4.80
2015,08,26,18,53,8.10
2015,08,26,18,54,8.10
2015,08,26,18,55,11.30
2015,08,26,18,56,11.30
2015,08,26,18,57,11.30
2015,08,26,18,58,6.40
2015,08,26,18,59,3.20
2015,08,26,19,00,16.10
2015,08,26,19,01,8.10
2015,08,26,19,02,9.60
2015,08,26,19,03,9.60
2015,08,26,19,04,14.50
2015,08,26,19,05,9.60
2015,08,26,19,06,14.50
2015,08,26,19,07,11.30
2015,08,26,19,08,6.40
2015,08,26,19,09,9.60
2015,08,26,19,10,16.10
2015,08,26,19,11,16.10
2015,08,26,19,12,17.70
2015,08,26,19,13,16.10
2015,08,26,19,14,14.50
2015,08,26,19,15,11.30
2015,08,26,19,16,8.10
2015,08,26,19,17,11.30
2015,08,26,19,18,16.10
2015,08,26,19,19,9.60
2015,08,26,19,20,11.30
2015,08,26,19,21,9.60
2015,08,26,19,22,11.30
2015,08,26,19,23,9.60
2015,08,26,19,24,8.10
2015,08,26,19,25,9.60
2015,08,26,19,26,8.10
2015,08,26,19,27,6.40
2015,08,26,19,28,11.30
2015,08,26,19,29,6.40
2015,08,26,19,30,11.30
2015,08,26,19,31,14.50
2015,08,26,19,32,14.50
2015,08,26,19,33,11.30
2015,08,26,19,34,11.30
2015,08,26,19,35,9.60
2015,08,26,19,36,14.50
2015,08,26,19,37,16.10
2015,08,26,19,38,9.60
2015,08,26,19,39,12.90
2015,08,26,19,40,14.50
2015,08,26,19,41,11.30
2015,08,26,19,42,11.30
2015,08,26,19,43,14.50
2015,08,26,19,44,14.50
2015,08,26,19,45,12.90
2015,08,26,19,46,8.10
2015,08,26,19,47,9.60
2015,08,26,19,48,14.50
2015,08,26,19,49,12.90
2015,08,26,19,50,11.30
2015,08,26,19,51,16.10
2015,08,26,19,52,16.10
2015,08,26,19,53,17.70
2015,08,26,19,54,20.90
2015,08,26,19,55,16.10
2015,08,26,19,56,11.30
2015,08,26,19,57,16.10
2015,08,26,19,58,17.70
2015,08,26,19,59,16.10
2015,08,26,20,00,16.10
2015,08,26,20,01,17.70
2015,08,26,20,02,16.10
2015,08,26,20,03,11.30
2015,08,26,20,04,16.10
2015,08,26,20,05,14.50
2015,08,26,20,06,19.30
2015,08,26,20,07,16.10
2015,08,26,20,08,17.70
2015,08,26,20,09,17.70
2015,08,26,20,10,16.10
2015,08,26,20,11,20.90
2015,08,26,20,12,19.30
2015,08,26,20,13,17.70
2015,08,26,20,14,22.50
2015,08,26,20,15,16.10
2015,08,26,20,16,17.70
2015,08,26,20,17,17.70
2015,08,26,20,18,14.50
2015,08,26,20,19,17.70
2015,08,26,20,20,19.30
2015,08,26,20,21,19.30
2015,08,26,20,22,16.10
2015,08,26,20,23,20.90
2015,08,26,20,24,16.10
2015,08,26,20,25,19.30
2015,08,26,20,26,17.70
2015,08,26,20,27,19.30
2015,08,26,20,28,20.90
2015,08,26,20,29,14.50
2015,08,26,20,30,22.50
2015,08,26,20,31,22.50
2015,08,26,20,32,19.30
2015,08,26,20,33,19.30
2015,08,26,20,34,19.30
2015,08,26,20,35,16.10
2015,08,26,20,36,16.10
2015,08,26,20,37,20.90
2015,08,26,20,38,20.90
2015,08,26,20,39,17.70
2015,08,26,20,40,17.70
2015,08,26,20,41,11.30
2015,08,26,20,42,17.70
2015,08,26,20,43,17.70
2015,08,26,20,44,14.50
2015,08,26,20,45,19.30
2015,08,26,20,46,14.50
2015,08,26,20,47,17.70
2015,08,26,20,48,17.70
2015,08,26,20,49,9.60
2015,08,26,20,50,11.30
2015,08,26,20,51,11.30
2015,08,26,20,52,11.30
2015,08,26,20,53,9.60
2015,08,26,20,54,11.30
2015,08,26,20,55,12.90
2015,08,26,20,56,14.50
2015,08,26,20,57,17.70
2015,08,26,20,58,16.10
2015,08,26,20,59,16.10
2015,08,26,21,00,14.50
2015,08,26,21,01,14.50
2015,08,26,21,02,11.30
2015,08,26,21,03,16.10
2015,08,26,21,04,16.10
2015,08,26,21,05,12.90
2015,08,26,21,06,9.60
2015,08,26,21,07,9.60
2015,08,26,21,08,11.30
2015,08,26,21,09,11.30
2015,08,26,21,10,11.30
2015,08,26,21,11,11.30
2015,08,26,21,12,14.50
2015,08,26,21,13,12.90
2015,08,26,21,14,16.10
2015,08,26,21,15,14.50
2015,08,26,21,16,8.10
2015,08,26,21,17,14.50
2015,08,26,21,18,9.60
2015,08,26,21,19,11.30
2015,08,26,21,20,11.30
2015,08,26,21,21,11.30
2015,08,26,21,22,11.30
2015,08,26,21,23,9.60
2015,08,26,21,24,9.60
2015,08,26,21,25,11.30
2015,08,26,21,26,11.30
2015,08,26,21,27,12.90
2015,08,26,21,28,9.60
2015,08,26,21,29,9.60
2015,08,26,21,30,8.10
2015,08,26,21,31,11.30
2015,08,26,21,32,14.50
2015,08,26,21,33,6.40
2015,08,26,21,34,9.60
2015,08,26,21,35,8.10
2015,08,26,21,36,11.30
2015,08,26,21,37,9.60
2015,08,26,21,38,14.50
2015,08,26,21,39,11.30
2015,08,26,21,40,14.50
2015,08,26,21,41,9.60
2015,08,26,21,42,11.30
2015,08,26,21,43,8.10
2015,08,26,21,44,8.10
2015,08,26,21,45,8.10
2015,08,26,21,46,9.60
2015,08,26,21,47,6.40
2015,08,26,21,48,6.40
2015,08,26,21,49,12.90
2015,08,26,21,50,11.30
2015,08,26,21,51,6.40
2015,08,26,21,52,9.60
2015,08,26,21,53,9.60
2015,08,26,21,54,11.30
2015,08,26,21,55,9.60
2015,08,26,21,56,8.10
2015,08,26,21,57,9.60
2015,08,26,21,58,9.60
2015,08,26,21,59,8.10
2015,08,26,22,00,9.60
2015,08,26,22,01,11.30
2015,08,26,22,02,8.10
2015,08,26,22,03,8.10
2015,08,26,22,04,9.60
2015,08,26,22,05,6.40
2015,08,26,22,06,3.20
2015,08,26,22,07,4.80
2015,08,26,22,08,6.40
2015,08,26,22,09,6.40
2015,08,26,22,10,6.40
2015,08,26,22,11,3.20
2015,08,26,22,12,4.80
2015,08,26,22,13,11.30
2015,08,26,22,14,8.10
2015,08,26,22,15,6.40
2015,08,26,22,16,9.60
2015,08,26,22,17,9.60
2015,08,26,22,18,11.30
2015,08,26,22,19,11.30
2015,08,26,22,20,12.90
2015,08,26,22,21,11.30
2015,08,26,22,22,11.30
2015,08,26,22,23,11.30
2015,08,26,22,24,11.30
2015,08,26,22,25,8.10
2015,08,26,22,26,9.60
2015,08,26,22,27,16.10
2015,08,26,22,28,16.10
2015,08,26,22,29,17.70
2015,08,26,22,30,16.10
2015,08,26,22,31,16.10
2015,08,26,22,32,9.60
2015,08,26,22,33,11.30
2015,08,26,22,34,9.60
2015,08,26,22,35,8.10
2015,08,26,22,36,11.30
2015,08,26,22,37,11.30
2015,08,26,22,38,8.10
2015,08,26,22,39,8.10
2015,08,26,22,40,9.60
2015,08,26,22,41,16.10
2015,08,26,22,42,14.50
2015,08,26,22,43,8.10
2015,08,26,22,44,9.60
2015,08,26,22,45,4.80
2015,08,26,22,46,9.60
2015,08,26,22,47,12.90
2015,08,26,22,48,8.10
2015,08,26,22,49,6.40
2015,08,26,22,50,4.80
2015,08,26,22,51,11.30
2015,08,26,22,52,6.40
2015,08,26,22,53,6.40
2015,08,26,22,54,8.10
2015,08,26,22,55,9.60
2015,08,26,22,56,11.30
2015,08,26,22,57,11.30
2015,08,26,22,58,12.90
2015,08,26,22,59,6.40
2015,08,26,23,00,4.80
2015,08,26,23,01,6.40
2015,08,26,23,02,8.10
2015,08,26,23,03,8.10
2015,08,26,23,04,9.60
2015,08,26,23,05,11.30
2015,08,26,23,06,9.60
2015,08,26,23,07,8.10
2015,08,26,23,08,12.90
2015,08,26,23,09,14.50
2015,08,26,23,10,9.60
2015,08,26,23,11,9.60
2015,08,26,23,12,16.10
2015,08,26,23,13,16.10
2015,08,26,23,14,17.70
2015,08,26,23,15,16.10
2015,08,26,23,16,9.60
2015,08,26,23,17,14.50
2015,08,26,23,18,12.90
2015,08,26,23,19,14.50
2015,08,26,23,20,11.30
2015,08,26,23,21,11.30
2015,08,26,23,22,16.10
2015,08,26,23,23,11.30
2015,08,26,23,24,14.50
2015,08,26,23,25,12.90
2015,08,26,23,26,16.10
2015,08,26,23,27,16.10
2015,08,26,23,28,8.10
2015,08,26,23,29,11.30
2015,08,26,23,30,14.50
2015,08,26,23,31,8.10
2015,08,26,23,32,16.10
2015,08,26,23,33,17.70
2015,08,26,23,34,17.70
2015,08,26,23,35,17.70
2015,08,26,23,36,17.70
2015,08,26,23,37,17.70
2015,08,26,23,38,14.50
2015,08,26,23,39,9.60
2015,08,26,23,40,11.30
2015,08,26,23,41,6.40
2015,08,26,23,42,11.30
2015,08,26,23,43,11.30
2015,08,26,23,44,14.50
2015,08,26,23,45,14.50
2015,08,26,23,46,8.10
2015,08,26,23,47,9.60
2015,08,26,23,48,8.10
2015,08,26,23,49,3.20
2015,08,26,23,50,4.80
2015,08,26,23,51,3.20
2015,08,26,23,52,3.20
2015,08,26,23,53,3.20
2015,08,26,23,54,3.20
2015,08,26,23,55,3.20
2015,08,26,23,56,3.20
2015,08,26,23,57,3.20
2015,08,26,23,58,3.20
2015,08,26,23,59,3.20
